This demonstration page uses our WeatherBlox Daily Observations layout. Learn more.

Left ArrowRight Arrow

41.86663, -103.66717

Hourly Observations for November 2, 2021

Temp ( °F °C ) Dew Point ( °F °C ) Humidity (%) Winds ( mph kmh ) Pressure ( in mb ) Visibility ( mi km ) Precip ( " mm )
12:53 am 00:53 Cloudy 32 0 29 -1.7 88 88 SE 6 9 30.42 1030 10 16 0.00 0.00
1:53 am 01:53 Cloudy 32 0 28 -2.2 85 85 ESE 7 11 30.42 1030 10 16 0.00 0.00
2:53 am 02:53 Mostly Cloudy 30 -1.1 27 -2.8 88 88 E 7 11 30.40 1029 10 16 0.00 0.00
3:51 am 03:51 Mostly Cloudy 28 -2 27 -3 93 93 E 8 13 30.46 1031 10 16 0.00 0.00
3:53 am 03:53 Mostly Cloudy 30 -1.1 26 -3.3 85 85 E 9 15 30.38 1029 10 16 0.00 0.00
4:38 am 04:38 Cloudy 31 -0.6 28 -2.2 89 89 ESE 9 15 30.43 1031 9 14 0.00 0.00
4:53 am 04:53 Cloudy 31 -0.6 28 -2.2 89 89 E 9 15 30.38 1029 8 13 0.00 0.00
5:53 am 05:53 Cloudy 32 0 29 -1.7 88 88 E 10 17 30.37 1028 9 14 0.00 0.00
6:34 am 06:34 Cloudy 32 0 29 -1.7 88 88 E 10 17 30.40 1030 10 16 0.00 0.00
6:53 am 06:53 Cloudy 32 0 29 -1.7 88 88 E 10 17 30.36 1028 10 16 0.00 0.00
7:53 am 07:53 Cloudy 32 0 29 -1.7 88 88 ESE 13 20 30.35 1028 9 14 0.00 0.00
8:53 am 08:53 Cloudy with Mist and Fog 33 0.6 30 -1.1 89 89 SE 10 17 30.34 1027 5 8 0.00 0.00
9:12 am 09:12 Cloudy with Mist and Fog 33 0.6 31 -0.6 92 92 ESE 10 17 30.37 1029 2 3 0.00 0.00
9:19 am 09:19 Cloudy with Mist and Fog 33 0.6 31 -0.6 92 92 ESE 12 19 30.37 1029 1 2 0.00 0.00
9:53 am 09:53 Cloudy with Mist and Fog 34 1.1 31 -0.6 89 89 ESE 9 15 30.33 1027 2 3 0.00 0.00
10:03 am 10:03 Cloudy with Mist and Fog 34 1.1 32 0 92 92 ESE 10 17 30.36 1028 3 5 0.00 0.00
10:49 am 10:49 Cloudy 36 2 34 1 93 93 ESE 12 19 30.34 1027 7 11 0.00 0.00
10:53 am 10:53 Cloudy 36 2.2 33 0.6 89 89 ESE 12 19 30.32 1027 8 13 0.00 0.00
11:53 am 11:53 Cloudy 37 2.8 34 1.1 89 89 ESE 10 17 30.31 1026 9 14 0.00 0.00
12:53 pm 12:53 Cloudy 39 3.9 35 1.7 86 86 ESE 10 17 30.28 1025 10 16 0.00 0.00
1:53 pm 13:53 Cloudy 41 5 36 2.2 82 82 E 12 19 30.25 1024 10 16 0.00 0.00
2:53 pm 14:53 Cloudy 41 5 36 2.2 82 82 E 10 17 30.24 1024 10 16 0.00 0.00
3:02 pm 15:02 Cloudy 42 5.6 37 2.8 82 82 E 13 20 30.21 1023 10 16 0.00 0.00
3:21 pm 15:21 Partly Cloudy 43 6.1 37 2.8 80 80 E 10 17 30.21 1023 10 16 0.00 0.00
3:44 pm 15:44 Mostly Cloudy 43 6 36 2 76 76 ENE 12 19 30.21 1023 10 16 0.00 0.00
3:53 pm 15:53 Mostly Cloudy 42 5.6 36 2.2 79 79 E 10 17 30.24 1024 10 16 0.00 0.00
4:12 pm 16:12 Partly Cloudy 43 6.1 36 2.2 76 76 E 10 17 30.21 1023 10 16 0.00 0.00
4:38 pm 16:38 Mostly Cloudy 43 6.1 36 2.2 76 76 E 9 15 30.22 1023 10 16 0.00 0.00
4:53 pm 16:53 Cloudy 42 5.6 36 2.2 79 79 E 7 11 30.24 1024 10 16 0.00 0.00
5:53 pm 17:53 Cloudy 41 5 35 1.7 79 79 ENE 6 9 30.25 1024 10 16 0.00 0.00
6:07 pm 18:07 Cloudy 41 5 35 1.7 79 79 NE 5 7 30.24 1024 10 16 0.00 0.00
6:53 pm 18:53 Cloudy 41 5 36 2.2 82 82 ENE 5 7 30.26 1025 10 16 0.00 0.00
7:19 pm 19:19 Cloudy 41 5 36 2.2 82 82 ENE 3 6 30.25 1024 10 16 0.00 0.00
7:53 pm 19:53 Cloudy 40 4.4 35 1.7 83 83 ENE 5 7 30.27 1025 10 16 0.00 0.00
8:53 pm 20:53 Cloudy 40 4.4 36 2.2 86 86 ENE 3 6 30.28 1025 10 16 0.00 0.00
9:53 pm 21:53 Cloudy 40 4.4 36 2.2 86 86 Calm 30.29 1026 9 14 0.00 0.00
10:17 pm 22:17 Cloudy 40 4.4 36 2.2 86 86 Calm 30.29 1026 9 14 0.00 0.00
10:33 pm 22:33 Cloudy 40 4.4 36 2.2 86 86 SW 3 6 30.29 1026 8 13 0.00 0.00
10:53 pm 22:53 Cloudy 40 4.4 36 2.2 86 86 SW 3 6 30.29 1026 8 13 0.00 0.00
11:09 pm 23:09 Cloudy 40 4.4 36 2.2 86 86 Calm 30.30 1026 8 13 0.00 0.00
11:53 pm 23:53 Cloudy with Mist and Fog 40 4.4 36 2.2 86 86 WNW 8 13 30.30 1026 6 10 0.00 0.00

Powered by AerisWeather